{"data":{"norad_id":49311,"epoch":"2026-05-25T02:36:30.205152Z","epoch_age_seconds":75975,"freshness":"FRESH","line1":"1 49311U 21090AJ  26145.10868293  .00000034  00000+0  50794-4 0  9990","line2":"2 49311  87.9174 279.0413 0002079  97.0196 263.1173 13.20766889226757","mean_motion":13.20766889,"eccentricity":0.0002079,"inclination_deg":87.9174,"raan_deg":279.0413,"arg_perigee_deg":97.0196,"mean_anomaly_deg":263.1173,"bstar":5.0794e-5,"rev_number":22675,"period_min":109.02756663519,"perigee_km":1180.2204527818,"apogee_km":1183.3638713274,"semimajor_km":7559.9291620546,"source":"CELESTRAK","updated_at":"2026-05-25T13:38:22.526683Z"}}